STARLINK-36692

Last updated on Sat Mar 14 2026 00:02:07 GMT+0000 (Coordinated Universal Time)

1 67744U 26026Z 26072.58334491 -.01760593 00000+0 -52198-1 0 9996 2 67744 97.2851 127.1920 0001429 76.3487 12.7510 15.37995764 5945

Satellite not in orbit